Winfield, KS

2:48 AM CDT on May 27, 2017 (GMT -0500)
Strother

Weather History for KWLD - October, 2012

Change the Weather History Date:

Wednesday, October 31, 2012

  Actual Average Record
Temperature  
Mean Temperature 52 °F -  
Max Temperature 69 °F 61 °F 82 °F (2016)
Min Temperature 36 °F 43 °F 32 °F (2006)
Degree Days  
Heating Degree Days 12    
Growing Degree Days 2 (Base 50)    
Moisture  
Dew Point 35 °F    
Average Humidity 56    
Maximum Humidity 86    
Minimum Humidity 31    
Precipitation  
Precipitation 0.00 in - - ()
Sea Level Pressure  
Sea Level Pressure 30.04 in    
Wind  
Wind Speed 3 mph (NNE)    
Max Wind Speed 7 mph    
Max Gust Speed -    
Visibility 10 miles    
Events      
Averages and records for this station are not official NWS values.
T = Trace of Precipitation, MM = Missing Value Source: NWS Daily Summary

Daily Weather History Graph

Daily Weather History Graph

Search for Another Location

Airport or City:

Trip Planner

Search our weather history database for the weather conditions in past years. The results will help you decide how hot, cold, wet, or windy it might be!

Date:

Astronomy

Oct. 31, 2012 Rise Set
Actual Time 7:52 AM CDT 6:30 PM CDT
Civil Twilight 7:25 AM CDT 6:57 PM CDT
Nautical Twilight 6:54 AM CDT 7:28 PM CDT
Astronomical Twilight 6:24 AM CDT 7:58 PM CDT
Moon 7:45 PM CDT (10/31) 9:31 AM CDT (10/31)
Length of Visible Light 11h 32m
Length of Day
10h 38m
Full, 97% of the Moon is Illuminated
Oct 31
Full
Nov 6
Last Quarter
Nov 13
New
Nov 20
First Quarter
Nov 28
Full

Hourly Weather History & Observations

Time (CDT) Temp. Windchill Dew Point Humidity Pressure Visibility Wind Dir Wind Speed Gust Speed Precip Events Conditions
12:54 AM 48.9 °F - 36.0 °F 61% 29.98 in 10.0 mi NE 4.6 mph - N/A   Clear
1:54 AM 45.0 °F - 36.0 °F 71% 29.99 in 10.0 mi Calm Calm - N/A   Clear
2:54 AM 41.0 °F 39.0 °F 35.1 °F 79% 30.01 in 10.0 mi NNW 3.5 mph - N/A   Clear
3:54 AM 39.0 °F 35.7 °F 34.0 °F 82% 30.02 in 10.0 mi NNW 4.6 mph - N/A   Clear
4:54 AM 37.9 °F 32.7 °F 34.0 °F 86% 30.02 in 10.0 mi North 6.9 mph - N/A   Clear
5:54 AM 39.0 °F 35.7 °F 34.0 °F 82% 30.04 in 10.0 mi North 4.6 mph - N/A   Clear
6:54 AM 39.0 °F 36.8 °F 33.1 °F 79% 30.04 in 10.0 mi NNE 3.5 mph - N/A   Clear
7:54 AM 36.0 °F - 32.0 °F 86% 30.07 in 10.0 mi Calm Calm - N/A   Clear
8:54 AM 42.1 °F - 35.1 °F 76% 30.09 in 10.0 mi Calm Calm - N/A   Clear
9:54 AM 48.9 °F - 33.1 °F 54% 30.11 in 10.0 mi ENE 3.5 mph - N/A   Clear
10:54 AM 53.1 °F - 30.0 °F 41% 30.11 in 10.0 mi SE 3.5 mph - N/A   Clear
11:54 AM 59.0 °F - 32.0 °F 36% 30.10 in 10.0 mi WSW 3.5 mph - N/A   Clear
12:54 PM 61.0 °F - 34.0 °F 36% 30.09 in 8.0 mi West 4.6 mph - N/A   Clear
1:54 PM 64.0 °F - 35.1 °F 34% 30.05 in 8.0 mi WSW 3.5 mph - N/A   Clear
2:54 PM 66.0 °F - 35.1 °F 32% 30.03 in 10.0 mi North 3.5 mph - N/A   Clear
3:54 PM 66.0 °F - 36.0 °F 33% 30.01 in 10.0 mi Calm Calm - N/A   Clear
4:54 PM 69.1 °F - 37.0 °F 31% 30.01 in 8.0 mi WNW 3.5 mph - N/A   Clear
5:54 PM 68.0 °F - 36.0 °F 31% 30.00 in 8.0 mi Calm Calm - N/A   Clear
6:54 PM 63.0 °F - 37.0 °F 38% 30.01 in 9.0 mi Calm Calm - N/A   Clear
7:54 PM 53.1 °F - 37.9 °F 57% 30.03 in 9.0 mi Calm Calm - N/A   Clear
8:54 PM 55.9 °F - 37.0 °F 49% 30.03 in 9.0 mi East 4.6 mph - N/A   Clear
9:54 PM 53.1 °F - 37.0 °F 55% 30.03 in 9.0 mi East 3.5 mph - N/A   Clear
10:54 PM 51.1 °F - 37.0 °F 59% 30.04 in 10.0 mi East 4.6 mph - N/A   Clear
11:54 PM 51.1 °F - 36.0 °F 56% 30.04 in 10.0 mi East 4.6 mph - N/A   Clear